Regional Weather Roundup
Issued by NWS

Home | Current Version | Previous Version | Text Only | Print | Product List | Glossary Off
Versions: 1 2 3 4 5 6 7 8 9 10 11 12 13 14 15 16 17 18 19 20 21 22 23 24 25 26 27 28 29 30 31 32 33 34 35 36 37 38 39 40 41 42 43 44 45 46 47 48 49 50

000
ASUS43 KFSD 220402
RWRSD

WEATHER ROUNDUP FOR SOUTH DAKOTA
NATIONAL WEATHER SERVICE SIOUX FALLS SD
1100 PM CDT SUN SEP 21 2014

NOTE: "FAIR" INDICATES FEW OR NO CLOUDS BELOW 12,000 FEET WITH NO
SIGNIFICANT WEATHER AND/OR OBSTRUCTIONS TO VISIBILITY.


SDZ001>005-009-010-012>017-220500-
NORTHWEST AND NORTH CENTRAL SOUTH DAKOTA

CITY           SKY/WX    TMP DP  RH WIND       PRES   REMARKS
FAITH            N/A     54  40  59 SE14      30.24S
MOBRIDGE       CLEAR     50  45  83 SE6       30.21S
$$

SDZ012>016-024>037-041>051-057-063-072>074-220500-
SOUTHWEST AND SOUTH CENTRAL SOUTH DAKOTA

CITY           SKY/WX    TMP DP  RH WIND       PRES   REMARKS
RAPID CTY ARPT PTCLDY    55  37  50 S6        30.25F
PIERRE         CLEAR     49  40  71 E6        30.24R
CUSTER         PTCLDY    47  33  58 CALM      30.34F
ELLSWORTH AFB  PTCLDY    56  38  50 S5        30.24F
PHILIP         CLEAR     50  39  66 E6        30.25S
PINE RIDGE     PTCLDY    52  39  61 E6        30.27S
WINNER         FAIR      51  42  71 S8        30.27S
$$

SDZ004>011-016>023-039-040-220500-
NORTHEAST SOUTH DAKOTA

CITY           SKY/WX    TMP DP  RH WIND       PRES   REMARKS
ABERDEEN       CLEAR     47  43  86 CALM      30.25R
WATERTOWN      CLEAR     49  45  86 CALM      30.26R
SISSETON         N/A     47  45  93 S5        30.23S
$$

SDZ017-020-022-023-036>040-048>070-220500-
SOUTHEAST SOUTH DAKOTA

CITY           SKY/WX    TMP DP  RH WIND       PRES   REMARKS
SIOUX FALLS    CLEAR     51  46  83 CALM      30.27R
HURON          CLEAR     55  45  68 S3        30.25S
CHAMBERLAIN    CLEAR     49  45  84 CALM      30.27R
MITCHELL       CLEAR     52  46  80 E6        30.26S
YANKTON        CLEAR     54  45  71 CALM      30.27S
$$

ABBREVIATIONS USED IN REMARKS
   TC - TEMPERATURE IN CELSIUS
  WCI - WIND CHILL INDEX
   HX - HEAT INDEX
  VSB - VISIBILITY



USA.gov is the U.S. government's official web portal to all federal, state and local government web resources and services.